Location: Peterborough
(44.3091°N, 78.3197°W)
Time: 22:46:28
(UTC-04:00)

Altair - Pass Details

Date: 03 August 2024
Orbit: 1501 x 1682 km, 47.2° (Epoch: 19 September)

Event Time Altitude Azimuth Distance (km) Brightness Sun altitude
Rises 00:09:43 0° 284° (WNW) 4,648 10.5 -26.3°
Reaches altitude 10° 00:15:57 10° 253° (WSW) 3,649 9.5 -26.6°
Maximum altitude 00:18:11 11° 238° (WSW) 3,560 9.3 -26.7°
Enters shadow 00:19:52 11° 227° (SW) 3,607 9.2 -26.8°
